User: anonymous   Login
Location: D�rnast
(49.6426°N, 11.9755°E)
Time: 09:11:19
(UTC+00:00)
Language:

Hubble Space Telescope - Orbit

View from above orbital plane
View from above orbital plane
View from above satellite
View from above satellite

Ground track
Ground track

The orbit data is extracted from the following two-line orbital elements,

1 20580U 90037B   22272.86410524  .00003112  00000-0  17126-3 0  9996
2 20580  28.4693 196.7816 0002654  81.5416 323.3837 15.10936136582020
Epoch (UTC): 29 September 2022 20:44:18
Eccentricity: 0.0002654
inclination: 28.4693°
perigee height: 531 km
apogee height: 535 km
right ascension of ascending node: 196.7816°
argument of perigee: 81.5416°
revolutions per day: 15.10936136
mean anomaly at epoch: 323.3837°
orbit number at epoch: 58202

The dashed part of the orbit path shows where the satellite is in the earth's shadow,  

DLR